Location: Axtheid
(49.6213°N, 11.8205°E)
Time: 23:11:01
(UTC+00:00)

Envisat - Pass Details

Date: 24 January 2022
Orbit: 764 x 765 km, 98.2° (Epoch: 21 May)

Event Time Altitude Azimuth Distance (km) Brightness Sun altitude
Rises 03:50:08 0° 17° (NNE) 3,243 6.5 -29.7°
Reaches altitude 10° 03:52:31 10° 23° (NNE) 2,312 5.8 -29.4°
Maximum altitude 03:57:29 53° 100° (E) 941 3.7 -28.6°
Drops below altitude 10° 04:02:26 10° 177° (S) 2,296 5.5 -27.8°
Sets 04:04:47 0° 182° (S) 3,218 6.2 -27.4°
